Regional Weather Roundup
Issued by NWS

Home | Current Version | Previous Version | Graphics & Text | Print | Product List | Glossary On
Versions: 1 2 3 4 5 6 7 8 9 10 11 12 13 14 15 16 17 18 19 20 21 22 23 24 25 26 27 28 29 30 31 32 33 34 35 36 37 38 39 40 41 42 43 44 45 46 47 48
331
ASUS45 KTFX 071710
RWRMT
MONTANA REGIONAL WEATHER ROUNDUP
NATIONAL WEATHER SERVICE GREAT FALLS MT
1000 AM MST SUN FEB 07 2016

NOTE: "FAIR" INDICATES FEW OR NO CLOUDS BELOW 12000 FEET WITH NO
SIGNIFICANT WEATHER AND/OR OBSTRUCTIONS TO VISIBILITY.

MTZ001>007-043-071800-
WEST OF THE DIVIDE

CITY           SKY/WX    TMP DP  RH WIND       PRES   REMARKS
KALISPELL      SUNNY     18  15  88 CALM      30.56R
MISSOULA       MOSUNNY   25  19  78 CALM      30.60R
BUTTE          CLOUDY    11   5  77 CALM      30.49R
MULLAN PASS    MOSUNNY   23  18  81 SW7       30.46R WCI  15
ANACONDA         N/A     27  16  63 CALM      30.51R
DEER LODGE       N/A     23  16  74 CALM      30.55R
HAMILTON         N/A     32  19  59 CALM      30.58R
LIBBY            N/A     21  18  86 CALM      30.62R
PLAINS           N/A     30  25  82 CALM      30.57R
THOMPSON FALLS   N/A     27  24  88 CALM      30.60R
$$

MTZ008-052>055-071800-
SOUTHWEST MONTANA

CITY           SKY/WX    TMP DP  RH WIND       PRES   REMARKS
BOZEMAN        SUNNY     22  13  68 S3        30.51R
DILLON         CLOUDY    29  16  58 SW6       30.48R WCI  23
ENNIS          SUNNY     34  12  40 N7        30.53R WCI  28
TWIN BRIDGES     N/A     22  12  65 SE6       30.42R WCI  15
$$

MTZ009-010-012-014-046-048-049-054-071800-
EAST SLOPES AND CENTRAL MONTANA

CITY           SKY/WX    TMP DP  RH WIND       PRES   REMARKS
CUT BANK       SUNNY     32  16  51 W14       30.44R WCI  22
GREAT FALLS    SUNNY     33  18  53 SW9       30.47R WCI  25
MALMSTROM AFB  SUNNY     32  18  55 SW12      30.48R WCI  23
HELENA         SUNNY     36  18  48 W8        30.50R WCI  30
CHOTEAU          N/A     37  10  32 W10       30.46S WCI  30
CONRAD           N/A     37  15  41 SW16      30.42R WCI  27
$$

MTZ011-013-016-021-045-047-050-051-071800-
NORTH CENTRAL MONTANA

CITY           SKY/WX    TMP DP  RH WIND       PRES   REMARKS
HAVRE          SUNNY     34  18  52 NW14      30.43R WCI  25
LEWISTOWN      SUNNY     29  12  49 CALM      30.43R
N BAR RANCH      N/A     28  10  47 NW18G30   30.40R WCI  16
CHINOOK          N/A     36  12  38 W17       30.41S WCI  25
$$

MTZ017>020-022>027-061-062-071800-
NORTHEAST MONTANA

CITY           SKY/WX    TMP DP  RH WIND       PRES   REMARKS
GLASGOW        SUNNY     31  19  61 NW30G38   30.28R WCI  16
JORDAN           N/A     33  18  53 NW24G31   30.33R WCI  20
SIDNEY         SUNNY     36  16  44 NW32G49   30.14R WCI  22
WOLF POINT     SUNNY     35  20  54 NW28G36   30.27R WCI  22
PLENTYWOOD       N/A     28  18  64 NW37G51   30.09R WCI  11
POPLAR           N/A     34  18  51 NW24G35   30.23R WCI  21
SCOBEY           N/A     30  14  51 NW26      30.16  WCI  16
$$

MTZ028>42-056>058-071800-
SOUTHCENTRAL AND SOUTHEAST MONTANA

CITY           SKY/WX    TMP DP  RH WIND       PRES   REMARKS
BAKER          SUNNY     33  14  45 NW41G62   30.16R WCI  17
BILLINGS       MOSUNNY   36  15  42 NW14      30.43R WCI  27
LIVINGSTON     CLOUDY    35  15  44 W15       30.44R WCI  25
MILES CITY     SUNNY     36  14  40 NW36G46   30.30R WCI  22
FORSYTH          N/A     36  12  38 W17G24    30.37R WCI  25
LAUREL           N/A     38  12  34 W14       30.38R WCI  30
ROUNDUP          N/A     36   6  28 NW21      30.29R WCI  25
$$

REGIONAL REPORTS...DAKOTAS

CITY           SKY/WX    TMP DP  RH WIND       PRES   REMARKS
WILLISTON      CLOUDY    31  19  61 NW33G46   30.11R WCI  15
MINOT          LGT SNOW  28  14  55 NW31G49   29.91R WCI  12
DICKINSON      CLOUDY    30  18  60 NW28G47   30.03R WCI  15
BEACH            N/A     32  14  47 NW36G48   30.16R WCI  16
CROSBY         CLOUDY    28  23  80 NW38G48   30.06R WCI  11
TIOGA          FLURRIES  27  23  86 NW38G47   30.04R WCI   9
WATFORD CITY   CLOUDY    28  19  69 NW39G51   30.09R WCI  11
BISMARCK       MIX PCPN  33  21  61 NW31G45   29.90R WCI  19
GRAND FORKS    CLOUDY    30  24  78 NW33G43   29.67R HAZE    WCI  14
FARGO          FLURRIES  36  31  82 W22       29.62R WCI  25
BUFFALO SD       N/A     37  13  37 NW56G71   30.01R WCI  21
RAPID CITY     SUNNY     38  10  31 NW48G63   30.14R WCI  23
$$

REGIONAL REPORTS...WYOMING/IDAHO/WASHINGTON

CITY           SKY/WX    TMP DP  RH WIND       PRES   REMARKS
GILLETTE       SUNNY     30  12  47 NW28G38   30.31R WCI  15
SHERIDAN       CLOUDY    33  16  49 NW23G31   30.39R WCI  21
BUFFALO WY     CLOUDY    31  11  43 NW30G43   30.34R WCI  16
CODY           CLOUDY    32  16  51 N15       30.39S WCI  22
YELLOWSTONE LA   N/A     18  12  77 VRB3      30.44R
IDAHO FALLS    CLOUDY    22  19  89 NW8       30.58R WCI  12
SALMON         CLOUDY    14  10  85 CALM      30.61R
BOISE          PTSUNNY   33  30  88 CALM      30.62R FOG
SPOKANE        FOG       27  26  96 NE3       30.58R VSB 1/4
$$

REGIONAL REPORTS...ALBERTA

CITY           SKY/WX    TMP DP  RH WIND       PRES   REMARKS
EDMONTON       MOSUNNY   27  16  63 W12       30.32S WCI  16
CALGARY        MOSUNNY   34   3  27 W15       30.38R WCI  24
LETHBRIDGE     MOSUNNY   36  14  41 W17G24    30.44R WCI  25
MEDICINE HAT   PTSUNNY   36  10  35 NW21      30.42R WCI  24
WATERTON GATE    N/A     34  10  37 SW18G25     N/A  WCI  23
MILK RIVER       N/A     32  14  47 W14         N/A  WCI  22
ONEFOUR          N/A     28  16  59 NW16        N/A  WCI  17
$$

REGIONAL REPORTS...SASKATCHEWAN

CITY           SKY/WX    TMP DP  RH WIND       PRES   REMARKS
SWIFT CURRENT  SUNNY     28  19  69 NW28      30.24R WCI  13
REGINA         PTSUNNY   28  19  69 NW29G43   30.10R WCI  13
SASKATOON      SUNNY     25  19  80 NW22G28   30.17R WCI  10
CYPRESS HILLS    N/A     25  10  54 NW15G24     N/A  WCI  12
VAL MARIE        N/A     32  16  51 NW26G36     N/A  WCI  18
ROCKGLEN         N/A     27  18  69 NW31G43     N/A  WCI  10
ASSINIBOIA       N/A     27  18  69 W14         N/A  WCI  15
$$




USA.gov is the U.S. government's official web portal to all federal, state and local government web resources and services.